Volver al catálogo

DELTA 1 DEB

ActivoSSO
NORAD 21459·DEBRIS·🇺🇸 United States

Lanzado Jun 12, 1975 desde Vandenberg Space Force Base

Loading…

Próximos Pases (próximas 24 horas)

TLE

ActualizadoSource: Space-Track

Época: Sep 14, 2026, 06:56 UTC

1 21459U 75052ET  26257.28920520  .00000097  00000-0  24907-3 0  9991
2 21459  99.6840  70.5825 0051460 249.0305 236.6451 13.41443119729034

Sigue DELTA 1 DEB en tiempo real con AllMySat

Download on the App Store